Qianfan Jigui 02-09

operational
NORAD ID: 61560 Int'l Des: 2024-185 Owner: YUANX Country: CN Constellation: qianfan
LEOCIRCULARPOLAR

About Qianfan Jigui 02-09

Description loading...

Live Position

Loading 3D Globe...

Upcoming Passes

Altitude History

Altitude vs Time

uPlot chart will show altitude changes over time

Two-Line Element Set

1 61560U 24185J 26062.15649245 .00000667 00000-0 26603-3 0 9999
2 61560 88.9746 67.4979 0008937 39.2543 320.9298 14.27439883 81637
Epoch: Mar 3, 2026 • Age: 15 hours

Current Status

Altitude 816.6 km
Velocity 7.44 km/s
Sub-Earth Point -26.44°S, 135.64°W
Launch Date Oct 15, 2024
Age 1.3 years
Type internet

Technical Details

Classification Payload
Mass 267.00 kg
Dry Mass 267.00 kg
Total Mass 267.00 kg
Length 0.30 m
Diameter 3.00 m
Span 10.00 m
Shape Box+pan
Manufacturer GESIH/SECM
Bus Type Qianfan
Phase Status In Orbit
Owner/State YUANX/CN

Large Constellations

Loading constellations...